Previsão horária em Celow

Hoje, 30 Julho, Sexta-feira

Tempo Temperatura Precipitação Vento Pressão Humidade
00:00 +16°C° 0 mm 2 m/s 736 mmHg 79%
01:00 +16°C° 0 mm 2 m/s 736 mmHg 80%
02:00 +15°C° 0 mm 2 m/s 736 mmHg 81%
03:00 +15°C° 0 mm 2 m/s 736 mmHg 81%
04:00 +15°C° 0 mm 2 m/s 736 mmHg 82%
05:00 +16°C° 0 mm 2 m/s 736 mmHg 77%
06:00 +18°C° 0 mm 2 m/s 736 mmHg 72%
07:00 +19°C° 0 mm 2 m/s 736 mmHg 67%
08:00 +21°C° 0 mm 3 m/s 736 mmHg 60%
09:00 +22°C° 0 mm 3 m/s 736 mmHg 53%
10:00 +25°C° 0 mm 4 m/s 735 mmHg 46%
11:00 +26°C° 0 mm 5 m/s 735 mmHg 44%
12:00 +27°C° 0 mm 5 m/s 735 mmHg 41%
13:00 +27°C° 0 mm 5 m/s 735 mmHg 39%
14:00 +28°C° 0 mm 5 m/s 734 mmHg 40%
15:00 +28°C° 0 mm 5 m/s 734 mmHg 40%
16:00 +28°C° 0 mm 4 m/s 734 mmHg 41%
17:00 +26°C° 0 mm 3 m/s 734 mmHg 48%
18:00 +25°C° 0 mm 2 m/s 734 mmHg 55%
19:00 +23°C° 0 mm 1 m/s 733 mmHg 62%
20:00 +22°C° 0 mm 1 m/s 733 mmHg 65%
21:00 +21°C° 0 mm 1 m/s 733 mmHg 68%
22:00 +20°C° 0 mm 1 m/s 733 mmHg 71%
23:00 +20°C° 0 mm 1 m/s 733 mmHg 71%

Amanhã, 31 Julho, Sábado

Tempo Temperatura Precipitação Vento Pressão Humidade
00:00 +19°C° 0 mm 1 m/s 733 mmHg 71%
01:00 +19°C° 0 mm 1 m/s 733 mmHg 71%
02:00 +19°C° 0 mm 1 m/s 733 mmHg 71%
03:00 +19°C° 0 mm 1 m/s 733 mmHg 71%
04:00 +19°C° 0 mm 1 m/s 733 mmHg 71%
05:00 +19°C° 0.1 mm 2 m/s 733 mmHg 72%
06:00 +20°C° 0.1 mm 2 m/s 733 mmHg 73%
07:00 +20°C° 0.1 mm 2 m/s 733 mmHg 74%
08:00 +21°C° 0.1 mm 2 m/s 733 mmHg 72%
09:00 +22°C° 0.1 mm 3 m/s 733 mmHg 70%
10:00 +22°C° 0.1 mm 3 m/s 733 mmHg 68%
11:00 +23°C° 0.1 mm 4 m/s 733 mmHg 63%
12:00 +25°C° 0.1 mm 4 m/s 733 mmHg 58%
13:00 +25°C° 0.1 mm 4 m/s 733 mmHg 54%
14:00 +26°C° 0 mm 4 m/s 733 mmHg 49%
15:00 +26°C° 0 mm 4 m/s 733 mmHg 44%
16:00 +27°C° 0 mm 5 m/s 733 mmHg 40%
17:00 +25°C° 0 mm 4 m/s 733 mmHg 46%
18:00 +24°C° 0 mm 3 m/s 733 mmHg 52%
19:00 +21°C° 0 mm 3 m/s 733 mmHg 58%
20:00 +20°C° 0 mm 2 m/s 733 mmHg 61%
21:00 +18°C° 0 mm 2 m/s 734 mmHg 64%
22:00 +17°C° 0 mm 2 m/s 734 mmHg 67%
23:00 +17°C° 0 mm 2 m/s 734 mmHg 69%

Depois de amanhã, 1 Agosto, Domingo

Tempo Temperatura Precipitação Vento Pressão Humidade
00:00 +16°C° 0 mm 2 m/s 734 mmHg 71%
01:00 +16°C° 0 mm 1 m/s 734 mmHg 73%
02:00 +16°C° 0 mm 1 m/s 734 mmHg 72%
03:00 +16°C° 0 mm 1 m/s 734 mmHg 71%
04:00 +16°C° 0 mm 1 m/s 734 mmHg 71%
05:00 +16°C° 0.1 mm 1 m/s 734 mmHg 71%
06:00 +18°C° 0.1 mm 1 m/s 734 mmHg 71%
07:00 +16°C° 0.1 mm 0 m/s 734 mmHg 72%
08:00 +18°C° 1.4 mm 1 m/s 734 mmHg 77%
09:00 +16°C° 1.4 mm 1 m/s 734 mmHg 83%
10:00 +16°C° 1.4 mm 1 m/s 734 mmHg 88%
11:00 +16°C° 0.1 mm 1 m/s 734 mmHg 86%
12:00 +18°C° 0.1 mm 1 m/s 734 mmHg 84%
13:00 +18°C° 0.1 mm 1 m/s 734 mmHg 83%
14:00 +16°C° 0.6 mm 1 m/s 734 mmHg 86%
15:00 +16°C° 0.6 mm 1 m/s 734 mmHg 90%
16:00 +15°C° 0.6 mm 2 m/s 734 mmHg 93%
17:00 +15°C° 0.1 mm 1 m/s 734 mmHg 92%
18:00 +15°C° 0.1 mm 1 m/s 734 mmHg 91%
19:00 +15°C° 0.1 mm 1 m/s 734 mmHg 90%
20:00 +15°C° 0 mm 1 m/s 734 mmHg 88%
21:00 +15°C° 0 mm 1 m/s 734 mmHg 87%
22:00 +15°C° 0 mm 2 m/s 734 mmHg 86%
23:00 +15°C° 0 mm 2 m/s 734 mmHg 87%

2 Agosto, Segunda-feira

Tempo Temperatura Precipitação Vento Pressão Humidade
00:00 +14°C° 0 mm 2 m/s 734 mmHg 87%
01:00 +14°C° 0 mm 2 m/s 734 mmHg 88%
02:00 +14°C° 0 mm 2 m/s 734 mmHg 88%
03:00 +14°C° 0 mm 2 m/s 734 mmHg 89%
04:00 +14°C° 0 mm 2 m/s 734 mmHg 90%
05:00 +15°C° 0 mm 2 m/s 734 mmHg 86%
06:00 +16°C° 0 mm 3 m/s 734 mmHg 83%
07:00 +17°C° 0 mm 3 m/s 735 mmHg 79%
08:00 +19°C° 0 mm 4 m/s 735 mmHg 72%
09:00 +20°C° 0 mm 5 m/s 735 mmHg 64%
10:00 +22°C° 0 mm 5 m/s 735 mmHg 57%
11:00 +22°C° 0.2 mm 5 m/s 735 mmHg 56%
12:00 +22°C° 0.2 mm 6 m/s 736 mmHg 56%
13:00 +22°C° 0.2 mm 6 m/s 736 mmHg 56%
14:00 +22°C° 0.2 mm 5 m/s 736 mmHg 58%
15:00 +22°C° 0.2 mm 5 m/s 736 mmHg 59%
16:00 +21°C° 0.2 mm 5 m/s 736 mmHg 61%
17:00 +20°C° 0.2 mm 4 m/s 736 mmHg 66%
18:00 +19°C° 0.2 mm 3 m/s 736 mmHg 71%
19:00 +18°C° 0.2 mm 3 m/s 736 mmHg 76%
20:00 +17°C° 0 mm 3 m/s 737 mmHg 79%
21:00 +16°C° 0 mm 2 m/s 737 mmHg 82%
22:00 +15°C° 0 mm 2 m/s 737 mmHg 85%
23:00 +14°C° 0 mm 2 m/s 738 mmHg 85%

3 Agosto, Terça-feira

Tempo Temperatura Precipitação Vento Pressão Humidade
00:00 +14°C° 0 mm 2 m/s 738 mmHg 85%
01:00 +14°C° 0 mm 2 m/s 738 mmHg 85%
02:00 +13°C° 0 mm 2 m/s 738 mmHg 85%
03:00 +13°C° 0 mm 2 m/s 738 mmHg 85%
04:00 +13°C° 0 mm 2 m/s 738 mmHg 85%
05:00 +14°C° 0 mm 2 m/s 738 mmHg 80%
06:00 +16°C° 0 mm 1 m/s 739 mmHg 75%
07:00 +18°C° 0 mm 1 m/s 739 mmHg 70%
08:00 +20°C° 0 mm 1 m/s 739 mmHg 64%
09:00 +21°C° 0 mm 1 m/s 739 mmHg 58%
10:00 +23°C° 0 mm 1 m/s 739 mmHg 51%
11:00 +23°C° 0 mm 1 m/s 739 mmHg 50%
12:00 +24°C° 0 mm 1 m/s 738 mmHg 49%
13:00 +24°C° 0 mm 1 m/s 738 mmHg 47%
14:00 +24°C° 0 mm 1 m/s 738 mmHg 48%
15:00 +25°C° 0 mm 1 m/s 738 mmHg 49%
16:00 +25°C° 0 mm 1 m/s 737 mmHg 49%
17:00 +24°C° 0 mm 1 m/s 737 mmHg 54%
18:00 +23°C° 0 mm 1 m/s 737 mmHg 58%
19:00 +21°C° 0 mm 1 m/s 737 mmHg 63%
20:00 +20°C° 0 mm 1 m/s 737 mmHg 65%
21:00 +19°C° 0 mm 1 m/s 737 mmHg 68%
22:00 +18°C° 0 mm 1 m/s 737 mmHg 70%
23:00 +18°C° 0 mm 1 m/s 737 mmHg 71%

4 Agosto, Quarta-feira

Tempo Temperatura Precipitação Vento Pressão Humidade
00:00 +16°C° 0 mm 1 m/s 737 mmHg 72%
01:00 +16°C° 0 mm 1 m/s 737 mmHg 74%
02:00 +16°C° 0 mm 1 m/s 737 mmHg 75%
03:00 +15°C° 0 mm 1 m/s 737 mmHg 76%
04:00 +15°C° 0 mm 1 m/s 737 mmHg 77%
05:00 +16°C° 0 mm 1 m/s 737 mmHg 73%
06:00 +18°C° 0 mm 1 m/s 737 mmHg 69%
07:00 +20°C° 0 mm 1 m/s 737 mmHg 66%
08:00 +20°C° 0 mm 2 m/s 737 mmHg 62%
09:00 +22°C° 0 mm 3 m/s 737 mmHg 57%
10:00 +24°C° 0 mm 3 m/s 737 mmHg 53%
11:00 +25°C° 0.1 mm 4 m/s 737 mmHg 51%
12:00 +26°C° 0.1 mm 4 m/s 737 mmHg 49%
13:00 +26°C° 0.1 mm 4 m/s 737 mmHg 47%
14:00 +26°C° 0.1 mm 4 m/s 737 mmHg 50%
15:00 +25°C° 0.1 mm 4 m/s 737 mmHg 53%
16:00 +24°C° 0.1 mm 3 m/s 737 mmHg 57%
17:00 +22°C° 0 mm 3 m/s 737 mmHg 61%
18:00 +21°C° 0 mm 3 m/s 737 mmHg 65%
19:00 +20°C° 0 mm 2 m/s 737 mmHg 70%
20:00 +19°C° 0 mm 2 m/s 737 mmHg 75%
21:00 +18°C° 0 mm 2 m/s 737 mmHg 81%
22:00 +18°C° 0 mm 1 m/s 737 mmHg 86%
23:00 +16°C° 0 mm 1 m/s 737 mmHg 87%
Mostrar mais

Necessitamos do seu Consentimento

A Meteoprog e os seus Fornecedores de Serviços podem armazenar e aceder a dados pessoais como cookies, identificadores do dispositivo ou outras tecnologias semelhantes existentes no seu dispositivo e processar estes dados para personalizar conteúdos e anúncios, assim como funcionalidades nas redes sociais e análise de tráfego.

  • Armazenar e/ou aceder a informações no seu dispositivo

    Os cookies, identificadores do dispositivo ou outras informações podem ser armazenados ou acedidos no seu dispositivo, para os fins acima indicados.

  • Anúncios e conteúdos personalizados, medição de anúncios e conteúdos, dados sobre o público-alvo e desenvolvimento de produtos

    Os anúncios e os conteúdos podem ser personalizados com base num perfil. Podem ser adicionados dados adicionais para uma maior personalização dos anúncios e dos conteúdos. A eficácia dos anúncios e dos conteúdos pode ser medida. Podem ser obtidas informações sobre o público que visualizou os anúncios e os conteúdos. Estes dados podem ser usados para desenvolver ou melhorar sistemas, softwares ou a experiência do utilizador.

Ao clicar em "Eu concordo”, permitirá o uso de cookies, identificadores do dispositivo e web beacons mencionados ou outras tecnologias semelhantes. As configurações do navegador do seu dispositivo podem ser alteradas.

Para certos fins, podem ser invocados interesses legítimos ao invés de consentimento. Pode ler mais informação sobre este assunto na nossa Política de Privacidade e Cookies.